Find Starlink 11632

NORAD ID: 63108 Int'l Des: 2025-039 Owner: SPXS Country: US Constellation: starlink operational
LEOCIRCULAR

Live Position

Loading 3D Globe...

About Starlink 11632

Description loading...

Upcoming Passes

Passes for default location (London). Set your location on the main map for personalized predictions.

Altitude History

Loading altitude history...

Two-Line Element Set

1 63108U 25039E 26125.27713287 .00250433 00000-0 18820-2 0 9998
2 63108 43.0001 255.8935 0003489 304.2038 55.8499 15.71025393 68515
Epoch: May 5, 2026 • Age: 5 hours

Current Status

Altitude 355.2 km
Velocity 7.70 km/s
Sub-Earth Point -8.26°S, 145.15°W
Launch Date Feb 27, 2025
Age 1.1 years
Type internet

Technical Details

Classification Payload
Mass 960.00 kg
Dry Mass 910.00 kg
Total Mass 960.00 kg
Length 0.30 m
Diameter 4.10 m
Span 29.00 m
Shape Box + pan
Manufacturer SPXS
Bus Type Starlink V2MD
Phase Status In Orbit
Owner/State SPXS/US

Most Searched